Racecast

Ashley HS

Difficulty:i +2.0% (3218m, the usual distance here) · 745 results · 458 athletes

All 3218m 5000m
Rating scale ?

Distances raced here

DistanceDifficultyiResults FirstLast
3218m +2.0% 535 2025-09-25 2025-10-16
5000m +0.3% 210 2020-11-25 2020-12-22

Best speed ratings all distances

Boys

#AthleteRatingi TimeDistSchoolDate
1 Asher Frederick 135.0 11:11.7 3218m St. Mark Catholic (NC) 2025-10-16
2 Luke Lanier 129.8 11:39 3218m Williston (ND) 2025-10-16
3 Jake Robinson 129.7 11:39.5 3218m Myrtle Grove (NC) 2025-10-16
4 Collin Tinney 128.8 11:44.5 3218m Roland-Grise (NC) 2025-10-16
5 Isaiah Arnold 124.0 16:54.8 5000m Ashley (NC) 2020-11-25
6 William Marhold 123.7 16:57.3 5000m Ashley (NC) 2020-11-25
7 Ayden Pryor 122.6 12:19.8 3218m Roland-Grise (NC) 2025-10-16
8 Quinn Timothy 122.3 12:21.4 3218m St. Mark Catholic (NC) 2025-10-16
9 Hobbs Whitlock 122.2 12:22.1 3218m Charles P Murray (NC) 2025-10-16
10 Kieran Timothy 121.8 12:25 3218m St. Mark Catholic (NC) 2025-10-16
11 Nash Williamson 120.9 12:30.3 3218m Myrtle Grove Christian (NC) 2025-10-16
12 Jaxon Fowler 120.8 12:31.2 3218m Charles P Murray (NC) 2025-10-16
13 Evan Brown 120.6 12:32.1 3218m Charles P Murray (NC) 2025-10-16
14 Walker Nelson 120.6 12:32.4 3218m Williston (ND) 2025-10-16
15 Isaiah Perry 120.3 17:26.5 5000m Ashley (NC) 2020-11-25
16 Charlie Fuerst 120.2 12:34.9 3218m Wilmington Christian Academy (NC) 2025-10-16
17 Jude Kight 120.0 12:35.7 3218m M C S Noble (NC) 2025-10-16
18 Isaac Lanier 119.6 12:38.7 3218m Williston (ND) 2025-10-16
19 Danny O'Connor 119.4 12:39.7 3218m Charles P Murray (NC) 2025-10-16
20 Liam Towne 119.0 12:42.2 3218m Charles P Murray (NC) 2025-10-16
21 Luke Sasscer 118.9 12:42.9 3218m M C S Noble (NC) 2025-10-16
22 Bradley Krieger 118.3 17:44.5 5000m Ashley (NC) 2020-12-22
23 Bodie Hall 118.0 12:48.4 3218m Charles P Murray (NC) 2025-10-16
24 Joseph Speight 118.0 12:48.6 3218m M C S Noble (NC) 2025-10-16
25 Rygg Robinson 117.8 12:49.9 3218m Myrtle Grove (NC) 2025-10-16
26 Luca Metkiff 117.8 12:50.2 3218m St. Mark Catholic (NC) 2025-10-16
27 Cullen Towne 117.4 12:53.3 3218m Charles P Murray (NC) 2025-09-25
28 Merrick Few 117.1 12:54.8 3218m M C S Noble (NC) 2025-10-16
29 Luke Dorosko 116.2 13:00.4 3218m M C S Noble (NC) 2025-10-16
30 Emmett Fuerst 116.2 13:00.5 3218m Wilmington Christian Academy (NC) 2025-10-16
31 Dylan Zacharias 116.2 13:00.8 3218m Emma B Trask (NC) 2025-10-16
32 Brayden Aubin 116.0 13:01.9 3218m Charles P Murray (NC) 2025-10-16
33 Jack Sullivan 115.9 13:02.5 3218m St. Mark Catholic (NC) 2025-10-16
34 Luke Holub 115.8 13:03 3218m Myrtle Grove (NC) 2025-10-16
35 Spencer Holland 115.8 13:03.3 3218m Myrtle Grove (NC) 2025-10-16
36 Christopher Andersson 115.4 13:06.2 3218m M C S Noble (NC) 2025-10-16
37 Andrew Wallace 114.9 18:15.5 5000m Hoggard (NC) 2020-11-25
38 Sebastian Anwari 114.8 13:09.8 3218m Charles P Murray (NC) 2025-10-16
39 Talyn Hunter 114.7 13:10.8 3218m Roland-Grise (NC) 2025-10-16
40 Shay Sorrells 114.6 13:11.5 3218m M C S Noble (NC) 2025-10-16
41 Grant Jones 114.6 13:11.8 3218m Roland-Grise (NC) 2025-10-16
42 Braxton Frederick 114.3 13:13.9 3218m St. Mark Catholic (NC) 2025-10-16
43 Pierce Wood 114.2 13:14.1 3218m Roland-Grise (NC) 2025-10-16
44 Holden O'Brien 114.2 13:14.5 3218m Williston (ND) 2025-10-16
45 John Schaffer 114.0 13:15.4 3218m M C S Noble (NC) 2025-10-16
46 Joseph Jabaley 114.0 13:16 3218m Roland-Grise (NC) 2025-10-16
47 Carson Brown 113.9 13:16.4 3218m Charles P Murray (NC) 2025-10-16
48 Finn Kimball 113.7 13:17.7 3218m St. Mark Catholic (NC) 2025-10-16
49 Sebastian Chilcott 113.6 13:18.2 3218m Roland-Grise (NC) 2025-10-16
50 Van Lawless 113.6 18:28.1 5000m Ashley (NC) 2020-11-25
51 Brody Jones 113.5 13:18.8 3218m Roland-Grise (NC) 2025-10-16
52 Taylor Hesmer 113.5 18:28.9 5000m Ashley (NC) 2020-11-25
53 Elias Maselli 113.3 13:20.4 3218m M C S Noble (NC) 2025-10-16
54 Joca Trecco 113.1 18:32.6 5000m New Hanover (NC) 2020-11-25
55 Jacob Riley 113.0 13:23.1 3218m St. Mark Catholic (NC) 2025-09-25
56 Kai Nau 112.8 18:36.1 5000m Ashley (NC) 2020-12-22
57 Jack Albertson 112.7 13:24.6 3218m Myrtle Grove (NC) 2025-10-16
58 Bates Lancaster 112.7 18:36.4 5000m Ashley (NC) 2020-11-25
59 Blake Mintern 112.5 13:26 3218m Roland-Grise (NC) 2025-10-16
60 Brooks Butler 112.4 18:39.6 5000m Ashley (NC) 2020-12-09

View all →

Girls

#AthleteRatingi TimeDistSchoolDate
1 Talley Obernuefemann 135.6 12:28.2 3218m M C S Noble (NC) 2025-10-16
2 Isabel Watts 135.4 12:29.5 3218m Charles P Murray (NC) 2025-10-16
3 Nealy Ruttkay 135.2 12:30.3 3218m Roland-Grise (NC) 2025-10-16
4 Wiley Durkin 134.5 12:34.2 3218m Charles P Murray (NC) 2025-10-16
5 Caroline Soporowski 129.3 13:04.5 3218m St. Mark Catholic (NC) 2025-10-16
6 Paxton Chitty 128.2 19:36.7 5000m Ashley (NC) 2020-11-25
7 Grace Dickson 126.6 13:21.4 3218m St. Mark Catholic (NC) 2025-10-16
8 Harper Zeller 126.6 13:21.4 3218m Charles P Murray (NC) 2025-10-16
9 Charlotte Dickson 125.9 14:30.8 3218m St. Mark Catholic (NC) 2025-10-16
10 Brinley Schilawski 125.7 13:27.2 3218m Roland-Grise (NC) 2025-10-16
11 Trinity Seymour 125.2 13:30.2 3218m Charles P Murray (NC) 2025-10-16
12 Madeline Kennedy 124.9 13:32.3 3218m Charles P Murray (NC) 2025-10-16
13 Lauren Gray Gould 124.6 13:34.2 3218m M C S Noble (NC) 2025-10-16
14 Stella Clark 124.3 13:36.3 3218m Myrtle Grove (NC) 2025-10-16
15 Ellie Harrington 123.7 20:19.8 5000m South Brunswick (NJ) 2020-11-25
16 Emily Mera 122.8 13:46 3218m Roland-Grise (NC) 2025-10-16
17 Sadie Sorrells 122.8 13:46.5 3218m M C S Noble (NC) 2025-10-16
18 Dylan Hoke 122.4 13:48.8 3218m M C S Noble (NC) 2025-10-16
19 Violet LeRoy 122.2 13:50 3218m St. Mark Catholic (NC) 2025-10-16
20 Emma Sloan 122.1 13:50.8 3218m M C S Noble (NC) 2025-10-16
21 Anna Tinglestad 122.1 20:35.9 5000m Hoggard (NC) 2020-12-22
22 Cecella DiBlasi 122.0 20:37 5000m Ashley (NC) 2020-11-25
23 Allison Phillips 121.7 20:40.4 5000m Ashley (NC) 2020-11-25
24 Leela Jarvis 121.4 13:55.9 3218m Charles P Murray (NC) 2025-10-16
25 Sophie Lundin 121.3 20:43.6 5000m New Hanover (NC) 2020-11-25
26 Mackenzie Farr 120.3 20:55 5000m Ashley (NC) 2020-12-22
27 Cadence Eder 120.2 20:55.4 5000m Ashley (NC) 2020-11-25
28 Alyssa Rieman 120.0 14:05.6 3218m Charles P Murray (NC) 2025-10-16
29 Adelyn Lehman 119.2 14:11.3 3218m Myrtle Grove (NC) 2025-10-16
30 Siera Long 119.1 14:12.2 3218m Roland-Grise (NC) 2025-10-16
31 Kylee Lastner 118.8 14:14 3218m Myrtle Grove (NC) 2025-10-16
32 Natalie Fox 118.8 21:10.4 5000m Ashley (NC) 2020-11-25
33 Keener Witmer 118.5 21:14.2 5000m Hoggard (NC) 2020-12-22
34 Reese Jones 118.1 14:19.4 3218m Williston (ND) 2025-10-16
35 Vivian Luckman 117.9 14:21.1 3218m Cape Fear Academy (Wilmington) (NC) 2025-09-25
36 Grace Clifford 117.8 15:30 3218m St. Mark Catholic (NC) 2025-10-16
37 Carter Williams 117.8 14:21.1 3218m Roland-Grise (NC) 2025-10-16
38 Rhodes Gould 116.7 21:33.3 5000m Hoggard (NC) 2020-12-22
39 Audrina Loftus 116.0 14:34.3 3218m St. Mark Catholic (NC) 2025-10-16
40 Grace Rottmann 116.0 14:34.5 3218m Charles P Murray (NC) 2025-10-16
41 Alayna Fox 115.9 14:35.8 3218m Charles P Murray (NC) 2025-10-16
42 Summer Tindall 115.5 14:38.7 3218m Roland-Grise (NC) 2025-10-16
43 Colette Tate 115.2 14:40.8 3218m Roland-Grise (NC) 2025-10-16
44 Winfield Taylor 115.0 14:42.3 3218m M C S Noble (NC) 2025-10-16
45 Annie Mulligan 115.0 21:52.7 5000m Hoggard (NC) 2020-11-25
46 Morgan Roberts 114.9 14:43 3218m Roland-Grise (NC) 2025-10-16
47 Samantha Garner 114.9 14:43.2 3218m Charles P Murray (NC) 2025-10-16
48 Brooke Emborsky 114.8 14:43.8 3218m Emma B Trask (NC) 2025-10-16
49 Chloe Taylor 114.3 22:00.1 5000m New Hanover (NC) 2020-11-25
50 Keira McWilliams 113.9 22:05.7 5000m Hoggard (NC) 2020-12-22
51 Aubrianna Ruscetti 113.3 22:12.5 5000m Ashley (NC) 2020-12-22
52 Lyla Varnum 113.0 14:58.1 3218m Williston (ND) 2025-09-25
53 Zoe Keenan 113.0 14:57.8 3218m Charles P Murray (NC) 2025-10-16
54 Reagan Ryan 112.9 14:59 3218m Charles P Murray (NC) 2025-10-16
55 Ellen Phillips 112.0 22:26.9 5000m Hoggard (NC) 2020-11-25
56 Kensley Brewington 112.0 15:06 3218m Myrtle Grove (NC) 2025-10-16
57 Spencer Summerfield 111.9 22:29 5000m Ashley (NC) 2020-12-22
58 Carmen Marello 111.8 15:07.2 3218m Charles P Murray (NC) 2025-10-16
59 Anna Benefield 111.8 22:29.3 5000m Ashley (NC) 2020-12-09
60 Raegan Pickard 111.7 22:30.5 5000m New Hanover (NC) 2020-11-25

View all →

Best team performances by rating top-5 average rating, one race, all distances

Boys

#SchoolTop-5 avg DistMeetDate
1 St. Mark Catholic (NC) 122.6 3218m Wilmington Area MS XC Series - #4 Championship - Veterans Park 2025-10-16
2 Charles P Murray (NC) 120.4 3218m Wilmington Area MS XC Series - #4 Championship - Veterans Park 2025-10-16
3 Ashley (NC) 119.8 5000m Ashley HS Home Meet #1 2020-11-25
4 Roland-Grise (NC) 118.9 3218m Wilmington Area MS XC Series - #4 Championship - Veterans Park 2025-10-16
5 Williston (ND) 118.7 3218m Wilmington Area MS XC Series - #4 Championship - Veterans Park 2025-10-16
6 Myrtle Grove (NC) 118.4 3218m Wilmington Area MS XC Series - #4 Championship - Veterans Park 2025-10-16
7 M C S Noble (NC) 118.0 3218m Wilmington Area MS XC Series - #4 Championship - Veterans Park 2025-10-16
8 Hoggard (NC) 111.4 5000m Ashley HS Home Meet #1 2020-11-25
9 Myrtle Grove Christian (NC) 108.7 3218m Wilmington Area MS XC Series - #4 Championship - Veterans Park 2025-10-16
10 Wilmington Christian Academy (NC) 107.4 3218m Wilmington Area MS XC Series - #4 Championship - Veterans Park 2025-10-16
11 New Hanover (NC) 107.2 5000m Ashley HS Home Meet #1 2020-11-25
12 Emma B Trask (NC) 106.9 3218m Wilmington Area MS XC Series - #4 Championship - Veterans Park 2025-10-16
13 Topsail (NC) 101.3 5000m Ashley HS Meet #3 2020-12-09

View all →

Girls

#SchoolTop-5 avg DistMeetDate
1 Charles P Murray (NC) 129.3 3218m Wilmington Area MS XC Series - #4 Championship - Veterans Park 2025-10-16
2 M C S Noble (NC) 125.5 3218m Wilmington Area MS XC Series - #4 Championship - Veterans Park 2025-10-16
3 St. Mark Catholic (NC) 124.4 3218m Wilmington Area MS XC Series - #4 Championship - Veterans Park 2025-10-16
4 Roland-Grise (NC) 124.1 3218m Wilmington Area MS XC Series - #4 Championship - Veterans Park 2025-10-16
5 Ashley (NC) 122.2 5000m Ashley HS Home Meet #1 2020-11-25
6 Hoggard (NC) 116.0 5000m Hoggard at Ashley (JV) 2020-12-22
7 Myrtle Grove (NC) 115.4 3218m Wilmington Area MS XC Series - #4 Championship - Veterans Park 2025-10-16
8 New Hanover (NC) 111.4 5000m Ashley HS Home Meet #1 2020-11-25
9 Myrtle Grove Christian (NC) 106.1 3218m Wilmington Area MS XC Series - #4 Championship - Veterans Park 2025-10-16
10 Cape Fear Academy (Wilmington) (NC) 105.6 3218m Wilmington Area MS XC Series - #2 - Veterans Park 2025-09-25
11 Topsail (NC) 104.0 5000m Ashley HS Meet #3 2020-12-09
12 Emma B Trask (NC) 102.6 3218m Wilmington Area MS XC Series - #4 Championship - Veterans Park 2025-10-16
13 Williston (ND) 102.2 3218m Wilmington Area MS XC Series - #2 - Veterans Park 2025-09-25
14 Wilmington Christian Academy (NC) 89.7 3218m Wilmington Area MS XC Series - #4 Championship - Veterans Park 2025-10-16

View all →

Meets held here all distances

MeetLast heldDistanceResults
Wilmington Area MS XC Series - #4 Championship - Veterans Park 2025-10-16 3218 272
Wilmington Area MS XC Series - #2 - Veterans Park 2025-09-25 3218 263
Hoggard at Ashley (JV) 2020-12-22 5000 53
Ashley HS Meet #3 2020-12-09 5000 48
Ashley HS Home Meet #1 2020-11-25 5000 109

View all →